SCP
-0 -0 -0 -1 -1 -1 -1 -0 -0 -0 -0 -0 -1 -1 -1 -0 -0 -0 -0 -0 -0 -0 -0 -0 -0 -0 -0 -0 -0 -0 -0 -0 -0 -0 -0 -0 -0 -0 -0 -0 -0 -0 -0
-0 -0 -1 -1 -1 -1 -1 -0 -0 -0 -0 -0 -0 -0 -0 -0 -0 -0 -0 -0 -0 -0 -0 -0 -0 -0 -0 -0 -0 -0 -0 -0 -0 -0 -0 -0 -0 -0 -0 -0 -0 -0 -0
-0 -0 -0 -1 -1 -1 -1 -1 -0 -0 -0 -0 -0 -0 -0 -0 -0 -0 -0 -0 -0 -0 -0 -0 -0 -0 -0 -0 -0 -0 -0 -0 -0 -0 -0 0 0 -0 -0 -0 -0 -0 -0
-0 0 -0 -0 -1 -1 -1 -0 -0 -0 -0 -0 -0 -0 -0 -0 -0 -0 -0 -0 -0 -0 -0 -0 -0 -0 -0 -0 -0 -0 -0 -0 -0 -0 -0 -0 -0 -0 -0 -0 -0 -0 -0
0 0 -0 -1 -1 -1 -0 -0 -0 -0 -0 -0 -0 -0 -0 -0 -0 -0 -0 -0 -0 -0 -0 -0 -0 -0 -0 -0 -0 0 0 -0 -0 -0 -0 -0 -0 -0 -0 -0 -0 -0 -0
0 -0 -1 -1 -1 -0 -0 -0 -0 -0 -0 -0 -0 -0 -0 -0 -0 -0 -0 0 -0 -0 -0 -0 -0 -0 0 0 0 0 -0 0 -0 -0 -0 -0 -0 -0 -0 -0 -0 -0 -0
0 0 -1 -1 -1 -1 -0 -0 -0 -0 -0 -0 -0 -0 -0 -0 -0 0 -0 -0 -0 0 0 0 0 0 0 -0 0 0 0 -0 0 0 -0 -0 -0 -0 -0 -0 -0 -0 -0
-0 0 -0 -1 -1 -0 -0 -0 -0 -0 -0 -0 -0 -0 -0 -0 -0 -0 -0 -0 -0 -0 -0 -0 -0 -0 -0 -0 -0 0 -0 -0 -0 -0 0 0 0 0 -0 -0 -0 -0 -0
0 0 0 0 -0 -0 -0 -0 -0 -0 -0 -0 -0 -0 -0 -0 -0 0 -0 -0 -0 -0 -0 -0 -0 -0 -0 -0 -0 -0 0 -0 -0 -0 -0 0 0 -0 -0 -0 -0 -0 -0
0 0 0 0 0 0 0 -0 -0 -0 -0 -0 -0 -0 -0 -0 -0 -0 -0 -0 -0 -0 -0 -0 -0 -0 -0 -0 -0 -0 -0 -0 -0 -0 0 0 -0 -0 -0 -0 -0 0 -0
0 0 0 0 0 0 -0 -0 -0 -0 -0 -0 -0 -0 0 -0 -0 -0 -0 -0 -0 -0 -0 -0 -0 -0 -0 -0 -0 0 -0 0 0 0 -0 -0 -0 -0 -0 -0 -0 -0 -0
-0 -0 0 0 -0 -0 -0 -0 0 0 0 -0 -0 -0 -0 -0 -0 -0 -0 -0 -0 -0 -0 -0 -0 -0 -0 -0 0 0 0 0 0 0 -0 -0 -0 -0 -0 -0 -0 -0 -0
-0 0 0 0 0 0 0 0 0 0 0 0 -0 -0 -0 -0 -0 -0 -0 -0 -0 -0 -0 -0 -0 -0 -0 -0 0 0 0 0 0 0 0 -0 -0 -0 -0 -0 -0 -0 -0
0 0 0 0 0 0 0 0 0 0 0 0 -0 -0 -0 -0 -0 -0 -0 -0 -0 -0 -0 -0 0 0 0 0 0 0 0 0 0 0 0 -0 -0 -0 -0 -0 -0 -0 -0
-0 0 -0 0 0 0 0 0 0 0 0 0 -0 -0 -0 -0 -0 -0 -0 -0 -0 -0 -0 0 0 0 0 0 0 0 0 0 0 0 0 -0 0 0 -0 -0 -0 -0 -0
0 0 0 0 0 0 0 0 0 0 0 0 0 -0 0 -0 -0 -0 -0 -0 -0 -0 0 0 0 0 0 0 0 0 0 0 0 0 0 0 -0 0 0 -0 -0 -0 -0
0 -0 0 0 0 0 0 0 0 0 0 0 0 0 0 0 0 -0 -0 -0 0 0 0 0 0 0 0 0 0 0 0 0 0 0 0 1 0 0 0 0 0 -0 0
0 0 0 0 0 0 0 0 0 -0 0 0 0 0 0 0 0 0 -0 0 0 0 0 0 0 0 0 0 0 0 0 0 0 0 0 1 1 1 1 0 0 0 0
0 0 0 0 0 0 0 0 0 0 0 0 0 0 0 0 0 0 0 -0 0 0 0 0 0 0 0 0 0 0 0 0 0 1 1 1 1 1 1 0 1 0 0
0 0 0 0 0 0 0 0 0 0 0 0 0 0 0 0 0 0 0 0 0 0 0 0 0 0 0 0 0 0 0 0 0 1 0 0 0 0 0 0 0 0 0
0 0 0 0 0 0 0 0 0 0 0 0 0 0 0 0 0 0 0 0 0 0 0 0 0 0 0 0 1 0 0 0 0 1 1 0 0 0 0 0 0 0 0
0 0 0 0 0 0 1 1 1 1 0 0 0 0 0 0 0 0 0 0 0 0 0 0 0 0 0 0 0 0 0 0 0 0 0 0 0 0 0 0 0 0 0
0 0 0 0 0 0 0 0 1 1 0 0 0 0 0 0 0 0 0 0 0 0 0 0 0 0 0 0 0 0 0 0 0 0 0 0 0 0 0 0 0 0 0
0 0 0 0 0 0 0 0 0 0 0 0 0 0 0 0 0 0 0 0 0 0 0 0 0 0 0 0 0 0 0 0 0 0 0 0 0 0 0 0 0 0 0
0 0 0 0 0 0 0 0 0 0 0 0 0 0 0 0 0 0 0 0 0 0 0 0 0 0 0 0 -0 0 0 0 0 0 0 0 0 0 0 0 0 0 0
0 0 0 0 0 0 0 0 0 0 0 0 0 0 0 0 0 0 0 0 0 0 0 0 0 0 0 0 0 0 0 0 0 0 0 0 0 0 0 0 0 0 0
Wind_Speed_500mb
57 59 56 53 47 42 42 38 35 34 36 39 40 39 37 35 35 34 31 29 26 24 24 24 25 23 19 16 13 15 16 14 18 24 27 27 26 26 28 30 30 31 30
58 61 58 55 51 45 43 39 36 34 34 38 41 41 39 36 33 30 28 27 26 26 26 26 25 23 21 21 21 22 21 23 23 25 27 26 24 24 26 26 28 30 29
59 60 57 55 54 49 43 39 35 33 34 36 41 41 39 34 30 29 29 30 30 29 29 29 29 30 30 31 31 31 31 30 27 25 24 24 26 26 25 24 24 27 27
61 59 55 54 55 52 46 40 34 33 37 38 39 39 38 36 35 33 32 32 31 30 30 31 32 33 35 35 35 35 35 30 26 22 20 22 25 26 27 27 28 28 29
61 57 54 54 55 53 46 41 35 35 40 39 41 42 40 37 35 34 34 33 32 31 31 34 35 38 40 40 38 35 32 30 26 22 17 14 22 26 25 28 30 29 28
57 54 52 54 58 55 48 41 35 37 41 41 43 42 41 39 36 36 35 35 33 30 31 37 39 41 40 36 32 30 26 24 21 21 19 18 19 23 24 25 27 26 25
56 54 52 54 58 56 50 42 36 35 40 40 41 40 40 38 35 35 35 31 32 32 32 38 42 42 35 27 21 20 14 16 16 17 19 19 20 23 25 26 26 27 25
54 53 53 55 58 56 50 44 37 37 40 40 38 37 37 37 34 31 31 30 33 33 34 39 41 38 31 25 20 14 15 11 13 15 17 18 21 23 24 24 24 25 24
52 54 56 58 58 54 50 44 39 37 41 40 37 37 35 34 32 30 31 34 36 35 36 38 39 33 29 23 15 13 15 16 15 17 19 19 21 22 24 26 25 25 25
49 51 56 59 60 57 51 46 40 38 42 40 37 35 34 32 31 32 34 34 37 35 35 36 35 30 26 20 17 16 11 16 16 17 19 21 23 21 23 24 25 25 26
51 50 50 54 58 58 54 49 42 39 43 41 40 37 34 32 32 32 35 35 35 34 32 32 30 28 23 22 20 12 13 17 15 18 21 22 24 23 20 21 21 21 22
55 55 53 53 56 58 57 53 47 43 46 44 41 39 35 33 32 32 34 35 33 32 31 28 26 28 24 24 21 19 15 19 11 16 21 21 22 22 21 18 18 17 17
50 52 52 52 53 56 59 55 50 47 48 46 41 38 36 34 34 33 33 34 33 31 31 29 28 28 26 24 23 25 22 24 21 20 20 21 20 21 21 19 17 15 14
51 47 48 51 52 52 52 54 52 49 50 50 45 41 40 37 35 33 32 31 31 30 29 28 28 28 26 27 24 22 23 26 27 19 24 24 23 21 20 18 15 15 14
54 49 46 47 49 50 50 50 51 49 50 50 47 43 41 39 36 34 31 30 29 29 30 30 30 31 30 31 29 27 29 32 34 30 33 30 29 26 22 21 19 16 15
57 52 49 46 45 46 48 47 46 45 45 49 48 44 41 39 38 35 31 31 27 27 30 31 32 35 36 33 30 34 31 36 36 36 40 41 34 30 27 24 21 18 18
60 53 50 47 45 39 45 43 42 39 39 44 47 45 42 41 41 40 33 31 27 23 20 22 34 38 41 38 34 33 35 41 41 40 41 52 42 36 29 26 23 23 22
64 62 55 49 44 35 40 39 34 35 28 32 40 46 43 40 42 40 37 38 28 27 30 30 37 41 42 42 45 41 39 38 50 47 33 55 47 42 29 25 21 23 25
55 60 58 54 44 22 39 38 31 36 33 25 26 40 42 41 42 46 41 36 29 37 34 36 40 44 49 51 48 47 46 47 48 49 38 38 43 43 36 29 25 23 26
46 52 52 58 53 39 35 42 37 44 38 32 27 34 32 35 39 44 53 48 44 41 43 47 46 46 44 46 50 55 57 56 55 52 46 45 44 47 43 40 32 30 31
38 46 50 60 59 55 53 48 51 48 49 48 43 43 45 46 52 57 59 66 61 58 55 52 54 54 47 49 55 60 63 60 62 57 52 52 51 49 46 43 39 37 36
29 32 43 48 59 58 49 46 51 54 51 53 54 54 53 52 54 60 63 71 76 75 69 58 48 47 48 54 56 61 57 58 61 60 55 55 52 52 52 49 47 44 41
26 34 34 35 40 55 48 50 45 42 40 45 49 50 52 47 45 54 53 54 61 78 85 77 55 34 27 60 72 73 38 38 65 66 67 63 61 62 62 59 55 49 45
19 22 29 34 39 47 46 43 46 45 48 52 52 47 51 55 53 57 60 65 59 62 77 70 66 55 71 64 60 95 83 42 45 43 69 75 72 73 71 68 60 55 49
14 15 16 19 21 32 36 43 48 49 48 49 50 47 48 55 55 50 50 53 52 51 46 55 65 84 76 93 87 46 84 73 61 45 52 63 82 80 78 75 69 63 55
15 11 8 8 13 19 22 27 35 29 31 32 29 30 33 36 40 47 45 49 51 52 56 60 59 62 85 70 80 74 71 44 41 51 63 65 71 72 78 78 73 69 64
Wind_Direction_500mb
174 172 168 173 172 165 158 155 154 150 148 150 154 156 153 152 150 147 148 151 148 146 143 144 140 137 134 134 133 127 121 125 129 126 120 117 117 122 123 120 115 114 113
169 174 170 174 175 169 162 156 155 157 155 155 155 154 153 152 151 152 155 155 151 146 140 138 141 144 147 145 139 126 127 122 122 125 122 118 115 118 121 121 119 117 118
172 172 171 175 175 172 166 159 155 156 158 157 158 158 157 155 153 150 148 143 140 139 137 132 131 133 133 130 125 124 118 116 116 123 124 123 115 125 125 126 125 121 119
172 172 173 177 176 172 168 163 157 155 155 153 153 154 153 152 150 147 143 138 134 134 137 137 133 130 126 120 117 111 109 109 114 115 127 124 116 124 125 125 125 124 122
173 173 175 177 175 173 170 165 161 158 154 153 153 150 149 148 146 143 138 132 127 128 136 141 137 131 124 117 113 113 108 104 104 116 124 125 131 129 133 137 133 131 130
171 172 175 176 175 174 172 169 164 160 156 155 152 149 149 149 145 143 139 135 129 132 135 143 138 133 129 122 117 118 114 104 96 111 111 123 125 126 128 130 134 135 132
171 172 175 176 175 175 174 171 167 163 161 159 156 153 153 151 148 150 149 148 139 139 139 145 144 139 135 134 129 123 120 110 115 110 123 128 135 130 129 129 127 127 128
173 172 174 175 176 176 176 174 172 168 166 165 163 160 158 156 155 155 156 148 145 143 141 148 149 145 146 142 137 141 131 119 124 126 130 131 140 135 132 129 129 127 124
176 173 174 175 177 179 179 178 176 174 170 169 168 164 164 164 164 161 155 150 148 144 143 145 151 154 159 158 163 167 133 126 115 127 131 137 141 137 132 129 128 126 122
178 179 180 179 181 182 183 183 182 177 175 171 170 170 171 173 173 169 163 161 154 152 150 151 158 166 175 174 173 180 177 150 125 127 138 141 137 140 136 133 130 130 126
182 185 187 187 188 187 187 187 186 182 178 176 174 174 173 173 171 172 170 169 165 162 162 162 167 175 187 176 187 200 192 154 138 137 144 146 142 142 145 140 135 134 129
184 186 191 193 194 193 193 193 191 188 184 182 181 179 174 174 173 173 176 176 176 173 173 175 183 186 193 193 195 204 193 168 169 157 151 153 151 151 151 152 148 144 143
184 188 194 197 197 198 199 199 198 195 191 187 187 186 183 181 179 179 182 184 188 187 185 190 198 204 198 208 203 200 212 204 197 187 173 168 168 165 163 163 163 164 164
189 192 194 199 203 202 203 203 204 200 196 193 191 191 193 193 189 187 189 191 194 198 199 204 210 221 208 207 207 217 222 205 186 206 209 187 192 183 179 177 180 179 186
196 195 198 199 208 208 204 204 205 204 202 199 197 197 198 200 201 199 195 197 199 207 212 217 219 222 220 208 211 212 226 224 224 239 213 202 204 201 195 194 198 198 206
200 201 200 200 206 213 209 209 208 207 207 205 205 204 206 206 205 203 203 206 208 216 227 232 229 223 229 218 218 217 230 238 229 240 218 230 210 217 212 210 214 220 223
210 206 204 202 201 209 214 213 213 210 210 212 212 212 214 215 215 214 218 218 221 231 239 244 241 231 229 233 235 227 231 229 242 235 237 216 218 219 221 223 226 238 244
216 210 207 202 198 210 211 207 202 201 207 217 222 221 220 222 225 226 226 225 235 246 249 258 258 243 237 242 248 236 229 238 232 236 217 214 225 220 222 224 230 242 246
218 211 212 207 197 204 214 208 211 221 215 222 232 231 228 230 229 230 234 233 245 247 255 260 265 245 249 246 243 233 230 227 228 234 231 220 218 225 228 233 243 248 251
209 213 211 217 216 212 212 215 225 233 233 233 236 228 225 228 230 233 233 238 243 247 251 258 266 256 256 257 241 240 229 226 229 235 231 231 225 222 228 233 242 250 253
192 211 208 215 223 224 225 222 231 238 244 239 234 231 231 238 246 249 245 240 241 241 241 246 254 259 257 254 243 235 225 225 228 230 229 226 228 231 237 241 251 259 260
166 185 204 212 217 223 225 225 234 240 240 239 243 243 249 247 251 252 253 252 248 246 241 240 248 257 249 239 231 230 228 225 225 226 232 234 237 240 244 246 252 262 263
173 178 181 181 203 215 221 228 236 239 238 238 241 239 243 248 253 253 256 258 259 254 244 243 246 298 307 253 242 236 227 220 227 224 228 233 239 244 248 248 251 259 262
188 182 198 208 203 206 217 226 238 245 245 250 251 254 256 257 264 271 271 272 269 259 256 253 242 264 287 268 292 246 236 223 207 223 236 235 237 238 243 246 249 258 257
165 192 192 206 214 222 222 229 238 242 245 253 257 259 266 270 275 278 279 280 276 257 247 251 264 257 259 249 274 268 240 246 249 239 244 242 238 238 240 243 251 253 252
124 139 166 208 229 236 242 246 254 262 258 258 262 268 274 273 272 275 276 281 284 275 271 274 265 267 252 265 270 257 262 289 282 257 258 259 258 251 251 253 248 247 247
Wind_Speed_850mb
57 59 56 53 47 42 42 38 35 34 36 39 40 39 37 35 35 34 31 29 26 24 24 24 25 23 19 16 13 15 16 14 18 24 27 27 26 26 28 30 30 31 30
58 61 58 55 51 45 43 39 36 34 34 38 41 41 39 36 33 30 28 27 26 26 26 26 25 23 21 21 21 22 21 23 23 25 27 26 24 24 26 26 28 30 29
59 60 57 55 54 49 43 39 35 33 34 36 41 41 39 34 30 29 29 30 30 29 29 29 29 30 30 31 31 31 31 30 27 25 24 24 26 26 25 24 24 27 27
61 59 55 54 55 52 46 40 34 33 37 38 39 39 38 36 35 33 32 32 31 30 30 31 32 33 35 35 35 35 35 30 26 22 20 22 25 26 27 27 28 28 29
61 57 54 54 55 53 46 41 35 35 40 39 41 42 40 37 35 34 34 33 32 31 31 34 35 38 40 40 38 35 32 30 26 22 17 14 22 26 25 28 30 29 28
57 54 52 54 58 55 48 41 35 37 41 41 43 42 41 39 36 36 35 35 33 30 31 37 39 41 40 36 32 30 26 24 21 21 19 18 19 23 24 25 27 26 25
56 54 52 54 58 56 50 42 36 35 40 40 41 40 40 38 35 35 35 31 32 32 32 38 42 42 35 27 21 20 14 16 16 17 19 19 20 23 25 26 26 27 25
54 53 53 55 58 56 50 44 37 37 40 40 38 37 37 37 34 31 31 30 33 33 34 39 41 38 31 25 20 14 15 11 13 15 17 18 21 23 24 24 24 25 24
52 54 56 58 58 54 50 44 39 37 41 40 37 37 35 34 32 30 31 34 36 35 36 38 39 33 29 23 15 13 15 16 15 17 19 19 21 22 24 26 25 25 25
49 51 56 59 60 57 51 46 40 38 42 40 37 35 34 32 31 32 34 34 37 35 35 36 35 30 26 20 17 16 11 16 16 17 19 21 23 21 23 24 25 25 26
51 50 50 54 58 58 54 49 42 39 43 41 40 37 34 32 32 32 35 35 35 34 32 32 30 28 23 22 20 12 13 17 15 18 21 22 24 23 20 21 21 21 22
55 55 53 53 56 58 57 53 47 43 46 44 41 39 35 33 32 32 34 35 33 32 31 28 26 28 24 24 21 19 15 19 11 16 21 21 22 22 21 18 18 17 17
50 52 52 52 53 56 59 55 50 47 48 46 41 38 36 34 34 33 33 34 33 31 31 29 28 28 26 24 23 25 22 24 21 20 20 21 20 21 21 19 17 15 14
51 47 48 51 52 52 52 54 52 49 50 50 45 41 40 37 35 33 32 31 31 30 29 28 28 28 26 27 24 22 23 26 27 19 24 24 23 21 20 18 15 15 14
54 49 46 47 49 50 50 50 51 49 50 50 47 43 41 39 36 34 31 30 29 29 30 30 30 31 30 31 29 27 29 32 34 30 33 30 29 26 22 21 19 16 15
57 52 49 46 45 46 48 47 46 45 45 49 48 44 41 39 38 35 31 31 27 27 30 31 32 35 36 33 30 34 31 36 36 36 40 41 34 30 27 24 21 18 18
60 53 50 47 45 39 45 43 42 39 39 44 47 45 42 41 41 40 33 31 27 23 20 22 34 38 41 38 34 33 35 41 41 40 41 52 42 36 29 26 23 23 22
64 62 55 49 44 35 40 39 34 35 28 32 40 46 43 40 42 40 37 38 28 27 30 30 37 41 42 42 45 41 39 38 50 47 33 55 47 42 29 25 21 23 25
55 60 58 54 44 22 39 38 31 36 33 25 26 40 42 41 42 46 41 36 29 37 34 36 40 44 49 51 48 47 46 47 48 49 38 38 43 43 36 29 25 23 26
46 52 52 58 53 39 35 42 37 44 38 32 27 34 32 35 39 44 53 48 44 41 43 47 46 46 44 46 50 55 57 56 55 52 46 45 44 47 43 40 32 30 31
38 46 50 60 59 55 53 48 51 48 49 48 43 43 45 46 52 57 59 66 61 58 55 52 54 54 47 49 55 60 63 60 62 57 52 52 51 49 46 43 39 37 36
29 32 43 48 59 58 49 46 51 54 51 53 54 54 53 52 54 60 63 71 76 75 69 58 48 47 48 54 56 61 57 58 61 60 55 55 52 52 52 49 47 44 41
26 34 34 35 40 55 48 50 45 42 40 45 49 50 52 47 45 54 53 54 61 78 85 77 55 34 27 60 72 73 38 38 65 66 67 63 61 62 62 59 55 49 45
19 22 29 34 39 47 46 43 46 45 48 52 52 47 51 55 53 57 60 65 59 62 77 70 66 55 71 64 60 95 83 42 45 43 69 75 72 73 71 68 60 55 49
14 15 16 19 21 32 36 43 48 49 48 49 50 47 48 55 55 50 50 53 52 51 46 55 65 84 76 93 87 46 84 73 61 45 52 63 82 80 78 75 69 63 55
15 11 8 8 13 19 22 27 35 29 31 32 29 30 33 36 40 47 45 49 51 52 56 60 59 62 85 70 80 74 71 44 41 51 63 65 71 72 78 78 73 69 64
Wind_Direction_850mb
174 172 168 173 172 165 158 155 154 150 148 150 154 156 153 152 150 147 148 151 148 146 143 144 140 137 134 134 133 127 121 125 129 126 120 117 117 122 123 120 115 114 113
169 174 170 174 175 169 162 156 155 157 155 155 155 154 153 152 151 152 155 155 151 146 140 138 141 144 147 145 139 126 127 122 122 125 122 118 115 118 121 121 119 117 118
172 172 171 175 175 172 166 159 155 156 158 157 158 158 157 155 153 150 148 143 140 139 137 132 131 133 133 130 125 124 118 116 116 123 124 123 115 125 125 126 125 121 119
172 172 173 177 176 172 168 163 157 155 155 153 153 154 153 152 150 147 143 138 134 134 137 137 133 130 126 120 117 111 109 109 114 115 127 124 116 124 125 125 125 124 122
173 173 175 177 175 173 170 165 161 158 154 153 153 150 149 148 146 143 138 132 127 128 136 141 137 131 124 117 113 113 108 104 104 116 124 125 131 129 133 137 133 131 130
171 172 175 176 175 174 172 169 164 160 156 155 152 149 149 149 145 143 139 135 129 132 135 143 138 133 129 122 117 118 114 104 96 111 111 123 125 126 128 130 134 135 132
171 172 175 176 175 175 174 171 167 163 161 159 156 153 153 151 148 150 149 148 139 139 139 145 144 139 135 134 129 123 120 110 115 110 123 128 135 130 129 129 127 127 128
173 172 174 175 176 176 176 174 172 168 166 165 163 160 158 156 155 155 156 148 145 143 141 148 149 145 146 142 137 141 131 119 124 126 130 131 140 135 132 129 129 127 124
176 173 174 175 177 179 179 178 176 174 170 169 168 164 164 164 164 161 155 150 148 144 143 145 151 154 159 158 163 167 133 126 115 127 131 137 141 137 132 129 128 126 122
178 179 180 179 181 182 183 183 182 177 175 171 170 170 171 173 173 169 163 161 154 152 150 151 158 166 175 174 173 180 177 150 125 127 138 141 137 140 136 133 130 130 126
182 185 187 187 188 187 187 187 186 182 178 176 174 174 173 173 171 172 170 169 165 162 162 162 167 175 187 176 187 200 192 154 138 137 144 146 142 142 145 140 135 134 129
184 186 191 193 194 193 193 193 191 188 184 182 181 179 174 174 173 173 176 176 176 173 173 175 183 186 193 193 195 204 193 168 169 157 151 153 151 151 151 152 148 144 143
184 188 194 197 197 198 199 199 198 195 191 187 187 186 183 181 179 179 182 184 188 187 185 190 198 204 198 208 203 200 212 204 197 187 173 168 168 165 163 163 163 164 164
189 192 194 199 203 202 203 203 204 200 196 193 191 191 193 193 189 187 189 191 194 198 199 204 210 221 208 207 207 217 222 205 186 206 209 187 192 183 179 177 180 179 186
196 195 198 199 208 208 204 204 205 204 202 199 197 197 198 200 201 199 195 197 199 207 212 217 219 222 220 208 211 212 226 224 224 239 213 202 204 201 195 194 198 198 206
200 201 200 200 206 213 209 209 208 207 207 205 205 204 206 206 205 203 203 206 208 216 227 232 229 223 229 218 218 217 230 238 229 240 218 230 210 217 212 210 214 220 223
210 206 204 202 201 209 214 213 213 210 210 212 212 212 214 215 215 214 218 218 221 231 239 244 241 231 229 233 235 227 231 229 242 235 237 216 218 219 221 223 226 238 244
216 210 207 202 198 210 211 207 202 201 207 217 222 221 220 222 225 226 226 225 235 246 249 258 258 243 237 242 248 236 229 238 232 236 217 214 225 220 222 224 230 242 246
218 211 212 207 197 204 214 208 211 221 215 222 232 231 228 230 229 230 234 233 245 247 255 260 265 245 249 246 243 233 230 227 228 234 231 220 218 225 228 233 243 248 251
209 213 211 217 216 212 212 215 225 233 233 233 236 228 225 228 230 233 233 238 243 247 251 258 266 256 256 257 241 240 229 226 229 235 231 231 225 222 228 233 242 250 253
192 211 208 215 223 224 225 222 231 238 244 239 234 231 231 238 246 249 245 240 241 241 241 246 254 259 257 254 243 235 225 225 228 230 229 226 228 231 237 241 251 259 260
166 185 204 212 217 223 225 225 234 240 240 239 243 243 249 247 251 252 253 252 248 246 241 240 248 257 249 239 231 230 228 225 225 226 232 234 237 240 244 246 252 262 263
173 178 181 181 203 215 221 228 236 239 238 238 241 239 243 248 253 253 256 258 259 254 244 243 246 298 307 253 242 236 227 220 227 224 228 233 239 244 248 248 251 259 262
188 182 198 208 203 206 217 226 238 245 245 250 251 254 256 257 264 271 271 272 269 259 256 253 242 264 287 268 292 246 236 223 207 223 236 235 237 238 243 246 249 258 257
165 192 192 206 214 222 222 229 238 242 245 253 257 259 266 270 275 278 279 280 276 257 247 251 264 257 259 249 274 268 240 246 249 239 244 242 238 238 240 243 251 253 252
124 139 166 208 229 236 242 246 254 262 258 258 262 268 274 273 272 275 276 281 284 275 271 274 265 267 252 265 270 257 262 289 282 257 258 259 258 251 251 253 248 247 247